| time (UTC) | temp F | wind direction | speed knots | gust knots | rain 1hr in | rain 24hr in | rain mn in | humidity % | barometer mb |
| 20260506180027 | 56 | 69 | 0.9 | 2.6 | 0.00 | 0.00 | 0.00 | 72 | 1033.2 |
| 20260506175024 | 57 | 78 | 0.9 | 4.3 | 0.00 | 0.00 | 0.00 | 71 | 1033.1 |
| 20260506174021 | 57 | 63 | 1.7 | 3.5 | 0.00 | 0.00 | 0.00 | 71 | 1033.1 |
| 20260506173017 | 57 | 68 | 1.7 | 4.3 | 0.00 | 0.00 | 0.00 | 71 | 1033.1 |
| 20260506172016 | 57 | 82 | 1.7 | 4.3 | 0.00 | 0.00 | 0.00 | 71 | 1033.0 |
| 20260506171033 | 57 | 74 | 1.7 | 3.5 | 0.00 | 0.00 | 0.00 | 70 | 1033.1 |
| 20260506170030 | 57 | 75 | 0.9 | 3.5 | 0.00 | 0.00 | 0.00 | 70 | 1033.0 |
| 20260506165025 | 58 | 101 | 0.9 | 2.6 | 0.00 | 0.00 | 0.00 | 70 | 1033.1 |
| 20260506164022 | 57 | 84 | 1.7 | 4.3 | 0.00 | 0.00 | 0.00 | 71 | 1033.2 |
| 20260506163019 | 57 | 98 | 1.7 | 3.5 | 0.00 | 0.00 | 0.00 | 70 | 1033.2 |
| 20260506162016 | 58 | 108 | 1.7 | 3.5 | 0.00 | 0.00 | 0.00 | 70 | 1033.2 |
| 20260506161034 | 57 | 93 | 0.9 | 3.5 | 0.00 | 0.00 | 0.00 | 71 | 1033.4 |
| 20260506160031 | 56 | 109 | 0.9 | 2.6 | 0.00 | 0.00 | 0.00 | 71 | 1033.2 |
| 20260506155027 | 56 | 93 | 0.9 | 2.6 | 0.00 | 0.00 | 0.00 | 72 | 1033.2 |
| 20260506154023 | 56 | 115 | 0.9 | 2.6 | 0.00 | 0.00 | 0.00 | 71 | 1033.2 |
| 20260506153020 | 57 | 108 | 0.9 | 2.6 | 0.00 | 0.00 | 0.00 | 71 | 1033.2 |
| 20260506152018 | 56 | 102 | 1.7 | 3.5 | 0.00 | 0.00 | 0.00 | 72 | 1033.3 |
| 20260506151034 | 55 | 116 | 0.9 | 1.7 | 0.00 | 0.00 | 0.00 | 74 | 1033.2 |
| 20260506150029 | 55 | 126 | 0.0 | 1.7 | 0.00 | 0.00 | 0.00 | 74 | 1033.3 |
| 20260506145025 | 56 | 114 | 0.9 | 2.6 | 0.00 | 0.00 | 0.00 | 75 | 1033.2 |
| 20260506144019 | 55 | 111 | 0.9 | 2.6 | 0.00 | 0.00 | 0.00 | 76 | 1033.4 |
| 20260506143033 | 55 | 105 | 0.9 | 2.6 | 0.00 | 0.00 | 0.00 | 75 | 1033.2 |
| 20260506142028 | 56 | 106 | 0.9 | 1.7 | 0.00 | 0.00 | 0.00 | 74 | 1033.3 |
| 20260506141024 | 56 | 95 | 0.9 | 1.7 | 0.00 | 0.00 | 0.00 | 74 | 1033.3 |
| 20260506140019 | 56 | 105 | 0.9 | 1.7 | 0.00 | 0.00 | 0.00 | 78 | 1033.2 |
| 20260506135035 | 54 | 50 | 0.9 | 3.5 | 0.00 | 0.00 | 0.00 | 81 | 1033.3 |
| 20260506134032 | 54 | 81 | 0.9 | 1.7 | 0.00 | 0.00 | 0.00 | 81 | 1033.2 |
| 20260506133028 | 54 | 81 | 0.9 | 1.7 | 0.00 | 0.00 | 0.00 | 81 | 1033.1 |
| 20260506132024 | 54 | 85 | 0.9 | 1.7 | 0.00 | 0.00 | 0.00 | 81 | 1033.1 |
| 20260506131019 | 55 | 121 | 0.9 | 1.7 | 0.00 | 0.00 | 0.00 | 81 | 1033.1 |
| 20260506130018 | 55 | 93 | 0.9 | 1.7 | 0.00 | 0.00 | 0.00 | 80 | 1032.8 |
| 20260506125031 | 55 | 95 | 0.9 | 1.7 | 0.00 | 0.00 | 0.00 | 80 | 1032.8 |
| 20260506124027 | 56 | 93 | 0.9 | 1.7 | 0.00 | 0.00 | 0.00 | 80 | 1032.8 |
| 20260506123023 | 56 | 74 | 0.0 | 1.7 | 0.00 | 0.00 | 0.00 | 79 | 1032.6 |
| 20260506122020 | 56 | 108 | 0.9 | 1.7 | 0.00 | 0.00 | 0.00 | 78 | 1032.7 |
| 20260506121016 | 57 | 100 | 0.9 | 1.7 | 0.00 | 0.00 | 0.00 | 77 | 1032.6 |
| 20260506120032 | 57 | 97 | 0.9 | 1.7 | 0.00 | 0.00 | 0.00 | 77 | 1032.4 |
| 20260506115029 | 57 | 90 | 0.9 | 1.7 | 0.00 | 0.00 | 0.00 | 76 | 1032.3 |
| 20260506114026 | 57 | 109 | 0.0 | 1.7 | 0.00 | 0.00 | 0.00 | 76 | 1032.3 |
| 20260506113024 | 58 | 109 | 0.0 | 1.7 | 0.00 | 0.00 | 0.00 | 75 | 1032.2 |
| 20260506112020 | 58 | 97 | 0.9 | 1.7 | 0.00 | 0.00 | 0.00 | 74 | 1032.2 |
| 20260506111017 | 59 | 78 | 0.9 | 1.7 | 0.00 | 0.00 | 0.00 | 73 | 1032.1 |
| 20260506110034 | 60 | 71 | 0.9 | 1.7 | 0.00 | 0.00 | 0.00 | 72 | 1032.0 |
| 20260506105032 | 60 | 50 | 0.9 | 1.7 | 0.00 | 0.00 | 0.00 | 71 | 1032.0 |
| 20260506104027 | 60 | 80 | 0.9 | 1.7 | 0.00 | 0.00 | 0.00 | 70 | 1031.9 |
| 20260506103025 | 61 | 96 | 0.9 | 1.7 | 0.00 | 0.00 | 0.00 | 69 | 1031.9 |
| 20260506102020 | 62 | 101 | 0.0 | 1.7 | 0.00 | 0.00 | 0.00 | 67 | 1031.7 |
| 20260506101017 | 63 | 113 | 0.9 | 1.7 | 0.00 | 0.00 | 0.00 | 65 | 1031.7 |
| 20260506100034 | 64 | 125 | 0.9 | 1.7 | 0.00 | 0.00 | 0.00 | 62 | 1031.6 |
| 20260506095031 | 65 | 143 | 0.9 | 2.6 | 0.00 | 0.00 | 0.00 | 60 | 1031.6 |
| 20260506094028 | 66 | 148 | 1.7 | 3.5 | 0.00 | 0.00 | 0.00 | 58 | 1031.5 |
| 20260506093025 | 67 | 138 | 1.7 | 5.2 | 0.00 | 0.00 | 0.00 | 58 | 1031.4 |
| 20260506092022 | 68 | 139 | 2.6 | 3.5 | 0.00 | 0.00 | 0.00 | 56 | 1031.3 |
| 20260506091018 | 68 | 134 | 2.6 | 4.3 | 0.00 | 0.00 | 0.00 | 55 | 1031.3 |
| 20260506090035 | 69 | 118 | 1.7 | 2.6 | 0.00 | 0.00 | 0.00 | 53 | 1031.2 |
| 20260506085031 | 70 | 100 | 2.6 | 5.2 | 0.00 | 0.00 | 0.00 | 53 | 1031.1 |
| 20260506084028 | 71 | 79 | 1.7 | 3.5 | 0.00 | 0.00 | 0.00 | 52 | 1031.1 |
| 20260506083024 | 71 | 87 | 2.6 | 5.2 | 0.00 | 0.00 | 0.00 | 51 | 1031.1 |
| 20260506082022 | 71 | 74 | 2.6 | 6.1 | 0.00 | 0.00 | 0.00 | 51 | 1031.0 |
| 20260506081019 | 71 | 62 | 1.7 | 5.2 | 0.00 | 0.00 | 0.00 | 51 | 1031.0 |
| 20260506073027 | 72 | 64 | 2.6 | 6.1 | 0.00 | 0.00 | 0.00 | 51 | 1031.0 |
| 20260506072025 | 72 | 72 | 2.6 | 7.8 | 0.00 | 0.00 | 0.00 | 50 | 1031.0 |
| 20260506071023 | 72 | 80 | 1.7 | 6.1 | 0.00 | 0.00 | 0.00 | 50 | 1031.0 |
| 20260506062029 | 72 | 69 | 0.9 | 4.3 | 0.00 | 0.00 | 0.00 | 52 | 1030.9 |
| 20260506061026 | 71 | 81 | 1.7 | 5.2 | 0.00 | 0.00 | 0.00 | 52 | 1031.0 |
| 20260506051030 | 72 | 87 | 0.9 | 3.5 | 0.00 | 0.00 | 0.00 | 52 | 1031.1 |
| 20260506045025 | 70 | 77 | 1.7 | 4.3 | 0.00 | 0.00 | 0.00 | 55 | 1031.4 |
| 20260506044022 | 71 | 47 | 0.9 | 3.5 | 0.00 | 0.00 | 0.00 | 55 | 1031.5 |
| 20260506043020 | 70 | 10 | 0.9 | 4.3 | 0.00 | 0.00 | 0.00 | 56 | 1031.7 |
| 20260506042017 | 70 | 36 | 1.7 | 5.2 | 0.00 | 0.00 | 0.00 | 56 | 1031.9 |
| 20260506041035 | 69 | 360 | 1.7 | 5.2 | 0.00 | 0.00 | 0.00 | 57 | 1032.0 |
| 20260506040032 | 69 | 72 | 2.6 | 5.2 | 0.00 | 0.00 | 0.00 | 59 | 1032.2 |
| 20260506035029 | 69 | 76 | 1.7 | 5.2 | 0.00 | 0.00 | 0.00 | 59 | 1032.4 |
| 20260506034027 | 68 | 90 | 1.7 | 3.5 | 0.00 | 0.00 | 0.00 | 60 | 1032.4 |
| 20260506033024 | 67 | 69 | 1.7 | 7.8 | 0.00 | 0.00 | 0.00 | 61 | 1032.6 |
| 20260506032023 | 67 | 63 | 2.6 | 5.2 | 0.00 | 0.00 | 0.00 | 61 | 1032.6 |
| 20260506031019 | 67 | 73 | 2.6 | 5.2 | 0.00 | 0.00 | 0.00 | 62 | 1032.7 |
| 20260506030016 | 67 | 123 | 0.9 | 3.5 | 0.00 | 0.00 | 0.00 | 61 | 1032.7 |
| 20260506025033 | 66 | 106 | 0.9 | 4.3 | 0.00 | 0.00 | 0.00 | 64 | 1032.8 |
| 20260506024030 | 65 | 107 | 1.7 | 7.0 | 0.00 | 0.00 | 0.00 | 64 | 1033.0 |
| 20260506023028 | 65 | 111 | 2.6 | 6.1 | 0.00 | 0.00 | 0.00 | 64 | 1032.8 |
| 20260506022025 | 65 | 122 | 1.7 | 5.2 | 0.00 | 0.00 | 0.00 | 65 | 1033.0 |
| 20260506021022 | 64 | 125 | 2.6 | 6.1 | 0.00 | 0.00 | 0.00 | 67 | 1033.0 |
| 20260506020020 | 64 | 122 | 3.5 | 7.0 | 0.00 | 0.00 | 0.00 | 68 | 1033.1 |
| 20260506015017 | 63 | 129 | 2.6 | 6.1 | 0.00 | 0.00 | 0.00 | 69 | 1033.1 |
| 20260506014036 | 63 | 149 | 2.6 | 4.3 | 0.00 | 0.00 | 0.00 | 70 | 1033.0 |
| 20260506013033 | 63 | 143 | 2.6 | 4.3 | 0.00 | 0.00 | 0.00 | 70 | 1033.0 |
| 20260506012030 | 62 | 140 | 1.7 | 5.2 | 0.00 | 0.00 | 0.00 | 71 | 1032.9 |
| 20260506011028 | 62 | 125 | 2.6 | 5.2 | 0.00 | 0.00 | 0.00 | 72 | 1032.9 |
| 20260506010025 | 61 | 118 | 2.6 | 5.2 | 0.00 | 0.00 | 0.00 | 74 | 1032.9 |
| 20260506005022 | 60 | 114 | 2.6 | 7.0 | 0.00 | 0.00 | 0.00 | 75 | 1032.8 |
| 20260506004020 | 60 | 113 | 2.6 | 7.8 | 0.00 | 0.00 | 0.00 | 76 | 1032.7 |
| 20260506003017 | 59 | 57 | 2.6 | 5.2 | 0.00 | 0.00 | 0.00 | 78 | 1032.8 |
| 20260506002035 | 58 | 88 | 3.5 | 6.1 | 0.00 | 0.00 | 0.00 | 79 | 1032.7 |
| 20260506001032 | 57 | 53 | 2.6 | 6.1 | 0.00 | 0.00 | 0.00 | 81 | 1032.6 |
| 20260506000030 | 56 | 93 | 2.6 | 5.2 | 0.00 | 0.00 | 0.00 | 83 | 1032.5 |
| 20260505235027 | 55 | 109 | 2.6 | 5.2 | 0.00 | 0.00 | 0.00 | 84 | 1032.3 |
| 20260505234024 | 55 | 102 | 1.7 | 4.3 | 0.00 | 0.00 | 0.00 | 83 | 1032.1 |
| 20260505233021 | 55 | 221 | 0.9 | 3.5 | 0.00 | 0.00 | 0.00 | 83 | 1032.0 |
| 20260505232018 | 55 | 82 | 2.6 | 6.1 | 0.00 | 0.00 | 0.00 | 83 | 1031.9 |
| 20260505231035 | 55 | 25 | 3.5 | 7.0 | 0.00 | 0.00 | 0.00 | 83 | 1031.9 |
| 20260505230030 | 55 | 89 | 2.6 | 4.3 | 0.00 | 0.00 | 0.00 | 83 | 1031.8 |
| 20260505225026 | 55 | 37 | 2.6 | 5.2 | 0.00 | 0.00 | 0.00 | 83 | 1031.7 |
| 20260505224023 | 55 | 35 | 2.6 | 7.8 | 0.00 | 0.00 | 0.00 | 83 | 1031.6 |
| 20260505223020 | 55 | 135 | 3.5 | 7.0 | 0.00 | 0.00 | 0.00 | 83 | 1031.5 |
| 20260505222035 | 55 | 124 | 1.7 | 4.3 | 0.00 | 0.00 | 0.00 | 83 | 1031.5 |
| 20260505221030 | 55 | 189 | 3.5 | 5.2 | 0.00 | 0.00 | 0.00 | 82 | 1031.3 |
| 20260505220025 | 55 | 25 | 2.6 | 4.3 | 0.00 | 0.00 | 0.00 | 82 | 1031.3 |
| 20260505215019 | 55 | 70 | 2.6 | 5.2 | 0.00 | 0.00 | 0.00 | 82 | 1031.2 |
| 20260505214035 | 55 | 18 | 2.6 | 7.0 | 0.00 | 0.00 | 0.00 | 83 | 1031.2 |
| 20260505213029 | 55 | 4 | 2.6 | 5.2 | 0.00 | 0.00 | 0.00 | 83 | 1031.0 |
| 20260505212024 | 55 | 93 | 1.7 | 5.2 | 0.00 | 0.00 | 0.00 | 83 | 1031.0 |
| 20260505211018 | 55 | 7 | 4.3 | 6.1 | 0.00 | 0.00 | 0.00 | 83 | 1030.9 |
| 20260505210034 | 55 | 124 | 3.5 | 5.2 | 0.00 | 0.00 | 0.00 | 83 | 1030.9 |
| 20260505205027 | 55 | 184 | 4.3 | 6.1 | 0.00 | 0.00 | 0.00 | 82 | 1030.8 |
| 20260505204023 | 55 | 216 | 0.9 | 2.6 | 0.00 | 0.00 | 0.00 | 82 | 1030.8 |
| 20260505203017 | 55 | 118 | 3.5 | 7.8 | 0.00 | 0.00 | 0.00 | 83 | 1030.7 |
| 20260505202033 | 55 | 174 | 4.3 | 6.1 | 0.00 | 0.00 | 0.00 | 83 | 1030.8 |
| 20260505201028 | 54 | 78 | 0.9 | 3.5 | 0.00 | 0.00 | 0.00 | 83 | 1030.8 |
| 20260505200024 | 55 | 161 | 1.7 | 3.5 | 0.00 | 0.00 | 0.00 | 82 | 1030.6 |
| 20260505195018 | 55 | 92 | 1.7 | 3.5 | 0.00 | 0.00 | 0.00 | 82 | 1030.7 |
| 20260505194034 | 55 | 118 | 2.6 | 4.3 | 0.00 | 0.00 | 0.00 | 81 | 1030.7 |
| 20260505193029 | 55 | 122 | 2.6 | 4.3 | 0.00 | 0.00 | 0.00 | 81 | 1030.8 |
| 20260505192022 | 54 | 129 | 1.7 | 3.5 | 0.00 | 0.00 | 0.00 | 81 | 1030.8 |
| 20260505191035 | 54 | 126 | 1.7 | 3.5 | 0.00 | 0.00 | 0.00 | 81 | 1030.7 |
| 20260505190028 | 54 | 118 | 1.7 | 3.5 | 0.00 | 0.00 | 0.00 | 81 | 1030.8 |
| 20260505185022 | 54 | 133 | 0.9 | 2.6 | 0.00 | 0.00 | 0.00 | 80 | 1030.7 |
| 20260505184017 | 54 | 108 | 1.7 | 3.5 | 0.00 | 0.00 | 0.00 | 80 | 1030.6 |
| 20260505183033 | 54 | 77 | 1.7 | 3.5 | 0.00 | 0.00 | 0.00 | 80 | 1030.7 |
| 20260505182026 | 54 | 47 | 1.7 | 4.3 | 0.00 | 0.00 | 0.00 | 81 | 1030.7 |
| 20260505181016 | 54 | 35 | 1.7 | 4.3 | 0.00 | 0.00 | 0.00 | 82 | 1030.7 |